Location: Anmer
(52.8333°N, 0.5833°E)
Time: 20:47:38
(UTC+00:00)

NOSS 8 (H) - Pass Details

Date: 15 May 2026
Orbit: 357 x 1497 km, 63.3° (Epoch: 7 June)

Event Time Altitude Azimuth Distance (km) Brightness Sun altitude
Rises 23:13:55 0° 312° (NW) 2,200 8.8 -17.6°
Reaches altitude 10° 23:15:51 10° 311° (NW) 1,348 7.5 -17.6°
Maximum altitude 23:18:43 78° 226° (SW) 390 3.9 -17.7°
Enters shadow 23:18:58 70° 171° (S) 407 3.9 -17.7°
